Wind_Speed
33 34 32 30 29 28 27 26 26 26 25 24 23 21 19 18 18 18 17 14 12 12 13 14 15 14 13 13 12 11 11 10 8 6 11 19 21 15 11 9 15 20 20 26 27 23 19 15 15 16 13 8 3 5 7 5 3 3 2 3 3 3 2 1 1 1 2 3 9 11 12 11 10 8 6 7 8 10 10 5 7 6 6 9 15 23 29 29
34 35 34 33 31 30 29 28 27 27 26 25 23 21 19 18 18 19 18 16 13 12 12 14 15 14 12 11 11 10 8 8 8 11 15 18 18 16 16 14 16 25 26 28 30 27 21 16 16 15 9 5 3 4 7 6 5 5 4 3 4 3 1 1 1 3 4 1 7 10 10 9 10 10 8 8 9 11 10 7 8 10 11 14 20 27 29 29
34 34 34 34 33 31 30 29 28 27 26 26 23 21 19 18 18 18 18 16 14 12 11 13 14 13 12 10 8 8 7 5 6 10 7 13 14 14 17 17 19 28 29 28 30 28 24 21 21 15 8 4 4 5 7 7 6 6 5 5 5 4 3 2 4 5 5 2 8 11 9 7 9 10 8 8 11 12 10 9 10 11 14 16 21 26 29 29
35 35 35 34 34 32 30 29 28 27 26 25 24 21 20 19 18 18 18 16 14 12 11 11 12 12 10 8 5 5 5 4 3 3 7 16 18 10 17 18 22 31 26 22 20 18 21 23 20 13 8 5 4 5 7 8 6 5 6 5 1 1 3 1 3 3 2 3 7 10 9 8 9 9 8 10 11 9 10 12 13 15 18 20 21 25 28 28
36 36 36 35 34 33 31 29 28 27 26 24 23 22 20 20 18 18 18 16 14 12 11 10 10 10 8 6 3 3 3 2 1 5 15 17 17 7 16 20 25 32 24 20 16 15 21 21 16 10 5 5 6 5 7 10 7 5 8 8 4 2 2 1 2 4 4 1 5 9 9 8 8 8 10 13 11 6 8 12 14 17 20 22 23 24 26 26
37 37 37 36 35 33 32 30 28 26 25 23 21 21 21 20 19 18 17 15 14 13 13 10 7 7 5 4 2 2 3 1 4 12 19 13 10 4 17 23 28 32 23 21 19 17 19 16 13 9 5 5 10 8 5 11 9 6 7 9 9 7 6 5 2 4 6 1 5 8 8 8 9 9 10 14 10 2 6 12 15 17 21 24 25 24 24 24
38 38 38 37 35 33 32 30 28 26 24 21 20 21 20 20 19 18 17 14 14 15 14 9 5 4 2 2 1 1 2 5 9 16 18 8 5 2 20 24 30 32 23 22 20 18 17 16 13 9 7 5 8 8 4 10 11 8 8 8 9 8 10 9 7 7 6 4 5 6 7 9 13 9 9 15 9 4 10 14 17 18 21 24 23 23 23 24
39 39 39 38 36 34 32 29 28 26 23 20 19 20 20 20 19 19 17 14 16 14 10 6 3 2 1 2 0 2 2 4 6 17 21 11 5 9 24 25 32 30 23 24 22 19 18 17 15 9 9 6 5 8 5 8 10 12 10 6 6 7 8 9 7 8 7 6 5 7 9 12 13 7 8 14 7 8 14 16 18 18 20 21 21 22 21 22
39 40 39 39 37 35 32 29 27 24 22 19 19 19 19 20 19 20 16 15 16 11 6 4 1 1 1 1 1 4 1 5 7 16 22 17 7 14 25 25 33 29 21 24 20 20 16 14 15 9 8 7 6 8 8 7 6 12 13 6 5 6 7 7 8 8 7 4 4 9 10 11 11 5 6 12 9 12 16 17 19 19 19 19 19 21 21 21
40 40 40 39 37 35 32 30 27 23 21 19 19 19 19 19 20 20 16 16 14 6 4 4 2 2 2 1 2 4 1 7 2 13 20 16 7 12 22 25 34 28 21 22 19 20 15 12 14 5 3 6 6 6 10 9 2 5 10 10 11 11 10 10 11 11 9 5 7 9 9 10 11 7 7 9 13 15 17 18 19 19 19 19 18 19 19 20
41 41 41 40 38 36 32 30 26 22 20 19 18 19 19 20 21 18 16 15 8 2 4 3 2 2 4 2 3 4 2 5 6 16 19 12 2 10 18 26 33 27 22 20 19 22 15 12 14 5 1 5 6 5 9 9 5 3 5 7 10 11 12 12 12 11 7 5 8 10 8 7 10 10 9 10 16 16 17 18 19 19 18 18 19 18 16 17
42 41 41 40 38 36 32 29 26 21 20 20 19 19 21 22 20 16 14 9 3 4 4 3 1 3 3 2 5 7 4 7 11 13 14 10 5 9 13 24 31 24 22 20 20 23 14 12 16 9 3 5 7 4 5 10 8 7 6 7 7 8 11 12 11 9 6 5 7 7 6 6 10 13 10 12 16 16 17 17 18 18 16 17 17 16 14 16
42 41 41 40 38 35 32 28 25 21 20 21 19 20 23 21 16 12 8 4 6 6 4 2 1 5 2 2 6 6 7 9 7 10 13 12 4 7 10 20 29 19 17 18 18 21 13 12 18 10 2 3 6 1 2 6 8 8 7 7 6 7 8 7 7 8 8 6 7 7 4 5 11 14 11 14 17 17 16 16 16 15 14 15 15 14 14 16
41 41 41 40 38 35 31 27 24 22 22 21 20 23 22 16 12 8 4 6 9 9 4 3 2 5 1 5 6 5 8 7 3 11 14 10 7 3 6 16 24 13 12 12 12 16 11 9 10 5 2 2 1 1 3 3 5 6 5 5 5 5 5 2 3 8 9 6 10 10 5 6 9 11 13 15 18 18 16 16 16 15 14 14 15 15 15 17
41 41 41 39 38 34 30 26 22 22 21 20 22 22 17 11 8 3 4 9 13 9 3 2 4 3 2 4 5 5 7 7 6 15 14 6 5 1 6 15 18 10 10 11 11 14 9 7 7 5 4 2 3 4 3 2 2 5 5 5 6 5 7 4 3 8 8 4 12 12 5 6 7 8 15 15 18 20 16 17 16 16 16 15 15 15 15 16
42 42 41 39 38 34 29 23 21 22 20 21 21 17 13 9 5 3 3 12 13 5 1 2 3 1 2 2 6 4 3 7 13 20 15 9 7 3 9 15 15 8 8 9 12 14 7 6 7 5 4 3 5 4 2 3 4 5 6 6 6 7 9 6 3 8 9 4 11 13 6 4 3 6 15 16 19 20 16 16 17 17 17 16 15 14 14 15
43 43 42 39 38 34 27 20 19 21 19 21 18 12 13 8 3 3 3 12 10 1 0 1 2 2 2 4 7 5 6 13 18 20 18 13 7 8 13 13 11 8 7 8 12 14 8 6 4 3 4 5 6 4 4 7 7 5 6 5 5 8 9 6 2 5 10 8 9 13 10 8 2 5 13 16 19 19 16 17 18 17 16 15 14 14 15 16
44 44 42 39 38 33 25 18 18 19 19 21 14 9 14 7 3 2 4 11 5 3 1 2 2 1 2 7 10 10 15 19 19 18 15 7 4 14 14 11 11 12 10 7 9 11 8 6 5 5 6 7 7 7 9 7 6 7 7 6 6 7 9 8 4 2 7 10 10 12 12 12 6 5 11 15 18 18 17 16 17 17 16 15 15 15 16 17
44 45 43 40 38 32 22 16 16 17 19 22 12 5 12 8 2 0 4 9 3 2 2 2 2 1 4 11 13 15 19 17 13 10 5 5 9 14 12 10 13 14 11 8 8 9 8 6 6 7 8 11 12 13 12 3 1 6 8 6 7 8 8 8 5 1 3 7 10 11 12 12 10 7 10 13 16 17 16 14 14 14 15 14 14 14 16 17
44 45 43 41 37 29 20 13 14 16 17 22 15 3 7 8 1 1 6 7 2 1 4 3 1 2 7 10 13 19 17 9 5 3 2 5 12 13 10 10 12 11 9 10 8 8 9 8 9 12 12 14 14 14 13 4 3 2 5 7 8 9 9 6 5 3 3 5 8 10 11 12 12 10 11 13 14 15 14 14 13 14 14 15 16 16 17 18
44 45 43 40 34 25 16 11 14 15 14 20 18 6 4 7 4 3 6 6 1 2 5 5 4 6 10 11 14 15 9 3 4 4 5 3 12 11 8 10 10 9 9 10 8 7 8 9 12 14 11 9 10 11 10 9 9 6 3 6 7 9 9 6 3 2 3 5 7 8 10 13 13 11 11 12 13 15 16 16 15 17 16 14 17 18 17 14
44 44 42 38 31 22 13 9 13 13 11 16 17 10 5 5 5 4 3 5 4 2 4 5 3 6 10 11 10 7 2 4 6 6 10 4 9 7 6 10 9 9 9 9 7 6 8 11 14 11 8 6 7 10 11 13 14 11 5 5 5 5 6 7 6 4 4 5 5 6 9 12 11 10 11 13 15 15 17 18 18 19 18 16 18 18 16 15
43 42 40 35 28 20 9 7 14 13 10 13 13 9 5 5 7 3 3 3 5 3 1 2 2 4 7 5 3 4 3 3 4 7 12 5 4 3 5 10 9 8 10 12 10 9 7 10 12 9 9 11 10 11 14 12 12 12 9 7 5 3 3 6 4 2 5 7 6 5 7 10 7 6 9 14 16 14 15 17 16 16 18 18 18 17 17 19
42 41 38 31 25 18 6 6 14 14 10 8 9 8 7 12 9 2 3 1 3 3 1 1 2 3 7 7 4 5 3 1 2 7 10 6 2 1 4 8 9 7 10 14 14 11 6 3 8 12 11 14 13 12 14 11 9 12 14 11 8 5 5 4 2 4 4 7 7 6 7 9 7 7 8 11 14 13 12 14 13 13 14 13 14 15 17 18
41 39 35 28 23 16 4 3 12 14 9 4 5 11 17 17 5 6 3 1 0 2 1 1 1 2 9 8 4 5 3 2 2 4 6 6 5 2 2 4 7 7 10 14 13 11 9 3 11 15 15 15 14 13 15 12 8 11 15 16 12 8 7 7 7 6 4 5 5 5 9 8 6 10 10 8 11 13 12 13 16 15 13 12 13 15 17 17
40 38 33 25 22 17 4 1 9 14 7 2 7 18 21 15 1 8 3 0 1 1 1 2 2 5 11 8 6 4 3 0 4 5 5 7 5 4 3 3 5 6 8 10 7 6 8 7 11 13 15 18 16 12 14 14 9 9 11 16 16 12 9 10 9 5 4 4 1 2 8 7 5 9 10 8 12 15 14 15 18 15 14 15 14 15 16 17
39 36 31 22 19 17 6 1 10 10 3 6 17 22 20 11 5 9 3 1 0 1 2 4 3 7 10 9 11 4 1 6 8 5 9 11 5 3 5 4 5 5 6 7 5 4 7 10 12 11 12 14 14 12 14 16 11 8 6 12 15 14 13 12 10 7 6 5 6 6 6 6 7 6 5 8 12 14 14 16 17 14 15 18 17 16 17 18
38 35 29 19 15 13 7 6 9 6 6 16 21 21 16 3 10 7 2 2 0 1 2 3 3 7 9 8 10 6 2 8 6 6 14 12 4 2 6 6 6 7 8 9 8 5 8 13 13 12 11 10 11 12 14 18 13 7 6 9 12 13 14 12 9 8 6 5 8 8 5 5 9 5 2 6 11 12 14 17 16 15 17 18 18 19 19 18
38 35 28 18 11 9 9 8 6 8 18 22 20 18 7 7 9 2 1 2 0 2 1 3 3 6 8 6 8 8 4 5 4 8 12 8 4 0 4 3 4 7 8 10 10 5 5 10 13 14 12 9 10 11 12 17 13 4 7 9 10 11 11 10 9 8 7 8 10 10 7 6 9 7 5 6 8 10 12 14 14 15 17 17 17 18 18 16
38 35 27 16 8 9 12 9 9 18 25 22 18 11 3 8 3 1 1 1 2 3 0 3 4 5 8 5 5 9 7 6 6 8 7 5 7 5 1 2 2 4 6 6 9 9 6 5 10 13 12 9 9 10 10 17 14 6 8 8 7 8 8 7 7 5 7 10 12 13 11 8 9 9 8 7 6 8 9 10 11 14 16 16 16 16 16 16
37 35 24 11 7 10 10 9 17 26 25 21 15 3 6 2 2 3 1 1 1 2 0 4 5 4 8 8 5 8 8 7 9 9 7 6 7 9 5 2 4 2 7 7 8 9 9 9 7 6 9 10 10 9 10 15 14 9 8 8 5 5 5 6 5 5 9 11 10 13 13 11 12 10 7 7 7 8 9 10 11 15 17 16 16 16 17 17
38 33 16 5 7 9 9 14 24 28 24 19 9 1 3 1 1 2 1 1 1 2 2 3 7 5 4 6 7 9 7 7 10 9 8 6 6 9 7 4 4 3 8 8 6 6 10 12 7 3 8 13 12 9 8 11 13 11 10 9 8 5 5 7 7 7 11 9 5 9 11 12 12 10 7 7 8 10 10 9 11 14 16 16 16 16 16 16
37 26 8 6 10 11 16 24 27 26 23 15 3 1 0 2 2 1 2 2 1 3 2 2 5 5 3 4 7 9 4 5 10 8 6 5 5 6 7 9 7 2 3 3 4 6 8 10 10 9 7 10 13 11 8 9 11 12 11 10 9 8 7 9 9 7 9 7 3 6 7 9 9 8 11 13 14 14 11 9 10 12 14 15 15 16 15 16
35 18 4 10 16 17 25 28 24 22 20 9 1 2 1 2 1 2 2 3 2 2 3 2 3 4 7 6 6 7 3 5 10 8 5 3 3 4 5 10 11 5 2 2 3 6 9 8 8 10 4 2 10 14 11 9 9 11 12 10 10 9 8 8 7 7 7 5 5 9 6 7 5 2 5 12 16 16 13 12 12 12 13 12 12 13 15 16
32 12 2 13 21 23 29 25 20 18 13 5 0 1 1 1 1 1 2 3 1 2 2 1 2 2 5 5 5 6 3 3 8 7 5 4 3 4 4 7 11 8 2 2 1 1 7 5 1 1 2 1 4 8 9 10 10 10 11 11 11 9 8 5 4 5 4 6 6 9 6 5 1 4 4 6 10 13 13 14 15 15 12 10 10 12 15 15
31 12 1 13 24 28 29 21 15 12 6 2 2 3 2 2 2 1 2 2 2 2 2 1 3 2 2 2 3 7 4 3 7 5 3 4 4 5 4 4 8 9 5 2 1 2 4 3 4 5 2 3 2 5 4 9 8 7 10 12 9 8 9 7 5 1 2 8 6 6 8 7 3 8 9 7 6 9 12 13 15 16 13 12 11 12 14 15
29 15 4 12 27 31 26 17 11 5 1 1 3 3 1 2 2 2 2 3 2 1 1 1 2 2 3 3 3 7 6 3 5 4 1 2 2 5 5 3 6 7 7 4 2 1 2 5 4 4 3 3 5 6 6 10 7 5 9 10 7 7 9 8 6 4 6 10 5 5 11 11 6 7 9 12 12 10 10 11 14 15 12 13 13 13 15 17
21 13 3 12 30 31 21 12 6 0 2 2 5 5 1 1 3 3 3 3 1 1 1 1 2 1 2 3 2 5 6 3 4 4 2 2 2 4 5 4 5 8 8 5 2 0 2 5 3 1 4 3 6 4 7 9 11 9 7 9 8 8 10 8 7 7 8 9 6 6 9 10 10 7 5 12 16 14 12 10 12 14 12 13 14 14 16 16
12 6 0 16 34 27 14 8 3 2 2 3 4 4 2 2 3 5 5 2 1 1 2 1 1 1 2 3 2 2 4 3 3 3 2 2 2 3 5 4 6 10 11 6 3 2 2 4 2 2 2 5 3 4 9 10 12 11 6 9 9 6 7 9 8 6 7 8 7 6 7 8 9 7 8 11 13 15 15 11 10 12 13 14 14 14 14 15
6 1 0 21 35 21 9 7 5 3 3 3 2 2 2 2 3 7 7 4 1 1 1 1 1 1 1 1 1 1 2 1 2 2 1 2 2 3 5 6 6 11 13 7 3 3 2 3 3 1 2 5 4 5 6 4 5 8 7 9 11 6 3 6 9 8 7 7 6 6 7 7 4 5 10 13 11 12 14 11 10 11 13 14 14 13 13 14
3 0 2 24 33 17 6 7 6 4 3 3 3 3 3 4 4 8 10 8 4 2 2 2 2 2 1 0 0 1 2 2 1 2 1 1 2 1 4 6 6 9 10 6 2 2 2 2 4 4 3 5 3 3 2 3 3 3 5 6 7 8 7 8 10 10 9 8 6 6 7 7 3 3 8 13 12 12 13 12 11 11 12 13 13 14 14 14
3 1 6 27 31 13 5 6 3 3 3 2 3 2 4 5 5 7 9 8 5 3 3 3 2 2 2 1 1 1 3 2 2 2 1 0 2 3 3 6 8 8 7 5 3 4 4 3 4 6 6 7 9 6 4 5 4 2 3 3 3 4 6 8 8 7 9 10 8 7 9 7 3 2 5 9 10 9 9 9 10 11 11 12 12 14 15 14
3 2 8 26 24 7 4 5 2 3 4 2 3 2 3 4 5 6 7 7 5 3 3 3 2 2 2 2 2 1 3 2 2 3 2 2 3 2 1 4 8 8 5 5 4 4 4 3 3 5 5 8 10 5 1 1 3 3 1 2 3 3 3 4 5 3 6 10 9 8 9 7 4 3 4 7 8 8 8 7 9 9 7 8 10 11 12 12
4 3 5 21 23 9 4 4 2 3 4 3 5 6 5 5 6 7 7 7 6 3 2 4 3 3 3 3 3 2 3 2 2 2 3 3 1 1 1 2 6 7 4 4 4 4 3 2 2 3 4 6 7 4 4 3 3 1 0 2 2 4 7 6 4 3 5 9 11 10 8 6 4 3 4 9 9 8 10 8 7 8 7 6 6 6 7 8
4 1 3 12 21 14 5 3 2 3 4 4 6 8 6 4 5 7 6 6 7 4 2 3 3 3 5 5 3 2 3 2 2 2 2 3 2 1 1 2 4 6 6 8 8 6 4 3 2 3 5 7 6 4 3 1 1 1 1 2 3 5 6 4 2 4 6 7 11 11 7 6 5 3 6 13 12 10 10 7 5 7 7 7 6 5 5 6
2 2 1 5 9 9 5 4 4 3 3 3 4 6 7 5 4 6 5 5 7 6 3 3 3 3 5 7 4 3 3 1 2 4 4 5 4 1 1 2 5 8 9 11 9 5 4 4 5 6 7 6 2 1 1 2 3 4 4 6 5 3 2 2 2 4 2 2 8 8 4 8 9 4 7 12 12 10 8 5 5 5 6 7 6 6 6 7
1 1 3 3 2 4 4 4 5 4 2 1 2 3 6 6 5 5 4 4 6 7 3 3 5 4 4 6 4 3 4 3 4 6 6 6 5 4 4 5 7 9 10 9 6 4 4 5 7 9 11 11 9 6 4 5 6 7 8 10 8 5 3 3 5 4 4 4 6 3 3 9 9 5 8 10 9 8 7 5 5 3 3 4 5 6 7 8
2 1 2 3 2 3 4 4 6 5 3 2 2 3 5 7 7 5 4 3 5 5 2 2 5 6 4 4 3 3 4 4 5 5 4 4 5 6 8 8 7 8 8 6 4 3 4 6 7 9 12 13 11 8 7 8 9 9 10 11 11 8 6 6 9 9 7 5 5 5 6 7 4 4 8 8 6 8 8 5 4 4 5 6 5 6 8 9
2 2 2 2 1 2 2 3 5 4 5 4 3 4 5 6 7 5 3 4 4 4 4 3 4 6 6 3 2 3 3 4 4 3 3 5 7 7 7 7 7 5 5 6 4 3 4 5 6 8 11 13 12 9 9 10 11 10 10 12 12 10 9 9 10 12 12 10 9 13 15 10 4 5 8 9 9 9 9 7 6 6 6 7 7 8 10 12
2 2 2 2 2 2 1 2 2 2 4 4 3 4 4 5 7 6 4 4 3 2 4 5 6 8 8 4 3 4 4 5 6 6 5 7 8 6 5 6 5 3 4 5 4 3 4 4 4 5 8 11 11 10 10 11 10 10 11 11 11 11 10 9 9 8 9 10 11 14 16 10 4 3 8 10 9 7 7 7 8 7 7 7 9 11 12 14
2 1 1 1 2 3 1 2 2 1 2 3 3 4 4 4 7 8 6 3 3 2 4 7 8 7 6 5 5 7 6 6 8 11 10 10 10 8 5 6 6 5 5 6 5 4 4 5 5 5 6 7 6 6 7 8 9 12 14 12 11 10 6 4 4 3 3 6 8 9 9 5 2 6 9 8 5 3 4 6 7 7 8 9 11 12 13 14
1 1 1 1 2 3 2 1 1 1 2 2 3 4 3 4 6 7 5 0 2 3 3 5 8 7 5 6 7 7 8 9 12 13 12 12 13 13 11 12 13 11 9 8 7 6 6 6 5 4 6 6 3 3 3 5 8 10 10 10 11 9 5 4 1 3 4 3 5 6 5 5 7 10 9 5 3 1 2 4 6 7 9 11 12 13 14 15
Wind_Direction
11 10 6 1 358 356 355 355 356 356 355 355 353 352 350 349 347 344 341 338 334 326 318 314 310 312 313 318 318 313 313 304 297 266 245 263 266 245 236 226 181 163 153 153 151 150 155 164 161 160 163 159 172 175 182 202 194 192 211 228 239 234 232 238 170 22 5 153 162 171 177 166 151 149 136 143 143 137 146 125 115 104 82 119 130 139 148 151
9 9 8 4 2 359 357 356 356 355 354 354 353 351 350 349 347 343 339 336 333 325 317 312 308 310 309 315 319 315 312 299 286 263 264 285 288 259 232 224 187 160 152 157 159 158 159 167 162 160 164 163 174 169 177 184 186 199 205 232 233 213 197 290 330 341 334 163 162 177 184 177 159 151 155 162 152 148 146 130 122 107 107 122 133 143 149 154
9 9 8 6 4 1 360 358 356 354 354 353 351 350 349 349 347 344 339 333 331 324 318 312 309 310 307 315 322 321 311 298 283 256 298 350 324 272 226 211 190 169 163 167 168 164 162 160 157 156 158 166 174 173 182 181 186 202 213 237 235 238 249 273 288 291 297 236 175 180 183 184 163 150 169 168 158 168 167 151 147 138 136 141 145 149 153 158
10 9 8 7 4 1 0 359 356 354 353 351 350 350 348 348 348 345 340 333 329 324 319 312 310 308 307 323 330 331 305 275 288 261 347 357 346 305 212 197 182 176 171 168 165 157 148 147 153 153 153 166 169 176 190 186 184 192 209 232 231 247 239 240 315 318 299 244 191 175 175 183 166 159 174 161 159 188 193 176 164 155 149 151 153 155 158 162
11 9 8 6 4 1 359 358 356 354 352 351 350 348 347 348 348 347 342 334 330 325 320 310 309 307 306 332 357 344 295 245 48 356 343 331 337 327 195 180 176 176 167 161 155 141 140 144 150 152 158 161 163 184 204 196 195 204 221 240 248 258 268 322 38 42 30 277 177 170 179 174 161 177 181 172 178 201 200 184 164 153 152 155 158 159 162 166
11 9 7 5 3 0 358 357 355 354 352 351 349 348 347 347 347 347 343 338 336 329 322 315 308 304 307 348 29 350 274 284 356 344 342 330 340 344 175 169 174 171 158 156 150 144 146 148 153 157 173 170 178 189 189 192 203 228 234 242 244 251 265 274 285 334 348 278 179 180 182 161 168 193 190 191 200 153 154 164 151 149 154 155 158 162 167 171
11 9 7 4 2 360 358 355 354 354 352 352 350 347 346 345 343 344 343 341 340 332 328 326 310 296 328 20 91 66 249 279 336 358 360 347 350 105 161 165 172 165 156 157 151 154 152 156 168 163 172 177 194 197 171 185 203 235 248 247 244 247 253 265 282 299 308 259 224 187 175 178 189 196 191 203 209 116 132 144 143 146 152 156 159 166 171 173
10 9 7 3 1 359 357 354 353 353 353 353 350 346 345 342 339 339 341 341 337 333 341 347 325 304 67 53 303 308 260 252 357 22 24 21 14 146 155 162 171 163 161 165 160 164 157 164 174 160 178 188 188 193 181 182 201 229 243 251 246 250 255 267 280 284 287 271 235 185 190 199 197 190 191 205 195 133 137 138 142 146 151 160 164 168 171 175
9 8 6 3 0 358 356 354 353 353 355 354 350 346 342 340 335 334 337 339 333 329 3 21 14 74 105 83 309 307 246 143 73 32 24 24 36 155 158 163 171 165 164 171 167 167 163 172 177 164 185 187 171 182 187 192 203 223 233 249 254 261 270 278 281 280 286 275 193 191 209 206 193 193 209 203 173 137 139 141 146 150 156 164 168 171 173 175
8 6 5 3 360 357 356 354 353 354 356 354 350 344 339 336 330 330 336 335 327 324 33 55 82 93 123 134 287 316 198 164 116 4 0 7 34 159 170 170 171 168 167 174 175 174 177 180 173 158 179 180 179 178 187 203 222 220 233 250 257 268 274 275 276 274 281 268 207 212 229 208 187 200 219 184 158 143 142 149 153 156 162 167 170 173 175 177
6 5 3 2 360 357 355 354 353 354 355 353 347 339 335 332 328 332 337 331 326 3 49 67 79 134 142 130 264 279 219 210 294 335 343 344 337 180 186 180 175 172 168 172 182 184 189 176 159 148 177 168 176 183 196 217 258 265 253 261 256 266 268 262 263 263 268 254 213 220 242 205 178 208 219 164 153 152 149 155 160 164 166 169 172 172 175 179
4 3 2 1 359 357 355 354 353 353 354 350 342 335 330 329 331 337 337 335 17 46 45 61 88 167 159 186 238 257 271 287 306 336 355 346 283 212 205 191 183 180 171 171 186 190 190 173 168 176 174 149 161 178 216 223 240 260 277 284 274 279 274 257 249 245 237 234 205 208 245 204 189 216 206 156 156 158 154 160 165 168 168 169 172 172 177 179
3 2 0 359 358 356 356 354 353 353 351 346 340 332 327 329 339 347 349 28 55 24 28 29 229 178 158 248 253 282 313 310 320 9 9 360 345 211 226 199 187 189 183 175 180 185 184 181 186 189 170 166 165 134 281 217 220 242 256 270 283 291 277 249 230 223 218 225 177 172 250 225 209 216 184 153 162 161 159 166 169 170 170 172 173 174 179 180
1 1 359 357 356 356 355 354 354 353 350 348 339 331 330 337 353 3 31 52 25 4 359 10 178 165 193 263 270 317 343 336 348 2 351 357 25 166 211 192 183 187 192 179 167 174 176 185 201 218 243 246 190 320 297 197 194 216 227 243 255 268 258 206 180 200 204 199 169 177 252 251 227 207 173 160 166 166 169 173 172 173 172 174 176 177 180 183
1 360 358 357 355 356 355 353 355 355 354 351 339 335 340 353 7 34 74 29 10 2 11 79 152 164 286 264 291 329 358 351 322 335 334 338 2 146 163 176 176 164 165 171 171 174 168 169 191 225 227 274 297 271 249 199 196 198 201 219 217 234 254 244 180 193 203 179 173 188 241 257 248 196 169 167 171 172 175 176 175 176 175 176 178 179 182 186
360 359 358 356 354 355 355 353 357 357 359 354 342 346 356 5 28 103 69 9 2 13 64 113 143 202 290 323 331 324 1 334 317 325 323 310 308 199 152 162 168 155 143 146 167 173 169 168 179 221 232 240 241 239 231 223 220 201 211 219 192 206 242 249 200 205 212 181 179 198 235 265 255 174 167 169 176 178 177 178 179 179 178 177 179 180 182 185
359 359 357 355 353 354 354 353 358 360 5 357 346 359 8 11 84 115 30 359 357 63 165 199 166 206 231 345 338 317 325 318 313 316 312 310 290 168 143 150 162 163 138 115 148 164 173 182 172 207 219 229 226 212 221 220 212 198 208 217 197 207 230 239 230 209 208 204 195 205 232 253 246 146 168 175 178 182 181 180 180 181 181 180 180 182 182 185
359 358 356 355 352 353 354 354 358 4 10 3 351 8 16 25 119 91 9 352 339 190 201 215 204 196 247 332 329 309 310 309 307 303 305 323 198 163 145 148 155 156 148 126 145 159 173 185 185 203 206 217 216 206 213 212 209 204 196 201 206 218 234 233 232 173 190 209 212 208 227 242 235 157 175 182 180 185 187 183 182 181 181 181 181 185 185 187
358 357 356 354 350 352 355 355 2 9 16 13 3 2 20 29 148 101 355 352 6 159 338 319 4 32 285 312 312 306 310 312 313 298 307 71 142 154 139 144 153 157 161 162 166 163 169 174 188 207 208 208 207 208 212 210 260 217 205 208 210 216 231 227 227 239 181 209 216 216 228 237 231 201 187 187 186 192 192 183 182 182 181 183 185 188 189 191
359 358 355 352 350 353 357 358 8 13 21 24 19 6 17 16 332 333 348 348 51 123 302 294 338 266 284 304 306 319 328 330 343 329 339 92 138 141 127 139 152 164 174 173 168 160 172 185 197 209 210 205 203 206 216 237 335 266 216 218 222 224 233 223 219 245 226 226 226 223 237 242 237 220 199 191 190 197 195 185 184 184 184 186 189 192 193 195
359 358 355 352 350 355 2 5 14 19 29 33 36 54 40 20 9 338 338 326 253 219 256 264 273 255 274 291 301 324 343 333 352 12 1 84 150 148 136 147 157 176 184 164 140 140 180 204 212 212 204 190 192 200 214 229 238 255 237 222 229 228 238 243 239 259 228 235 240 230 243 248 242 229 205 189 191 200 199 192 189 188 188 191 192 194 194 191
359 358 354 352 353 358 5 15 21 23 34 41 47 64 90 53 8 294 300 313 290 261 250 264 264 254 273 278 292 319 312 322 352 17 13 45 171 178 159 166 174 178 173 155 139 157 194 221 220 201 172 166 186 197 206 219 228 238 243 236 234 221 248 262 250 253 235 235 246 230 242 253 249 233 208 190 196 205 203 198 193 188 189 192 194 194 190 184
359 359 355 352 355 360 6 32 26 23 34 46 53 61 75 20 345 273 205 293 296 298 266 286 281 282 305 314 338 338 321 339 351 360 3 11 186 201 177 180 183 170 170 178 182 180 193 225 214 169 157 187 193 195 203 214 225 229 230 232 230 204 235 246 221 231 239 240 257 254 255 260 255 232 209 201 205 208 206 206 202 194 193 194 193 191 187 185
358 359 355 353 356 360 11 46 24 17 25 57 69 47 1 339 337 214 190 255 300 302 254 287 278 294 329 331 326 328 333 309 301 342 353 354 6 286 203 186 184 179 181 192 198 198 206 207 166 156 172 196 196 195 201 209 221 224 226 229 228 219 231 253 332 349 271 237 241 254 268 264 245 236 226 206 209 213 206 206 209 207 203 196 193 194 192 190
357 358 356 353 358 5 23 59 20 6 5 86 74 356 336 334 334 188 213 180 230 291 198 249 240 345 332 319 320 330 301 219 269 310 323 338 343 273 207 180 197 200 185 192 202 214 226 169 143 165 184 196 203 204 202 206 218 224 225 226 230 233 237 261 295 314 285 231 205 216 250 258 230 235 239 196 196 215 207 203 211 207 199 195 196 198 196 196
355 357 356 352 358 6 22 98 2 355 360 94 343 332 331 334 258 184 217 72 122 42 59 340 346 358 345 339 340 320 217 277 328 303 323 341 325 240 209 170 201 210 176 183 211 229 224 179 158 180 188 191 203 214 207 202 217 233 219 213 222 235 239 249 265 273 260 255 268 219 245 257 225 227 233 192 192 211 206 208 215 206 196 200 202 199 197 197
352 356 354 350 355 3 18 310 338 353 14 322 327 331 332 332 180 178 223 241 164 36 12 344 335 348 351 345 336 328 175 332 322 331 357 350 335 226 219 183 185 206 159 166 224 214 197 185 175 190 196 193 203 214 203 194 213 239 196 185 207 224 231 238 250 252 259 290 294 258 241 263 253 230 214 194 202 211 206 213 216 204 201 205 204 203 200 198
350 354 352 346 347 357 5 336 334 354 333 321 328 334 334 331 162 172 265 238 265 37 26 346 327 335 337 333 349 16 2 331 331 346 348 346 1 192 223 204 191 197 169 187 219 174 181 200 188 187 203 206 208 214 196 189 213 234 161 167 196 214 225 232 243 250 261 286 269 244 212 251 256 229 148 192 211 214 209 216 215 205 206 207 205 205 201 198
348 352 349 340 340 349 352 343 327 327 330 330 334 338 344 146 160 187 308 214 35 74 100 335 336 337 332 329 12 23 351 352 2 322 327 345 16 351 229 237 223 208 192 211 230 216 202 209 191 191 212 216 211 216 191 188 210 206 150 171 192 206 218 223 234 247 252 253 252 239 211 235 260 237 194 192 212 215 212 218 215 208 211 209 206 207 202 198
346 350 346 336 336 345 345 341 328 332 336 337 339 343 132 150 192 239 166 211 32 65 110 348 350 332 347 359 19 12 2 8 352 321 327 12 22 27 7 317 317 236 216 222 236 244 265 232 194 200 216 209 203 212 194 195 203 164 155 180 183 196 209 214 224 237 246 246 243 236 219 222 259 249 213 201 214 213 204 211 212 210 215 212 209 208 201 197
346 349 344 333 338 350 348 336 335 339 340 340 343 355 156 151 288 193 159 184 92 38 63 24 10 353 19 34 20 360 4 5 355 353 5 16 27 31 23 346 360 285 217 222 232 232 245 237 207 203 210 194 194 207 199 201 201 179 186 192 174 182 191 205 204 196 235 247 232 226 219 218 242 245 211 200 212 215 210 207 205 207 213 213 208 205 201 199
347 349 347 351 357 1 355 335 336 339 339 341 343 177 176 262 213 192 356 180 177 24 58 33 17 15 25 39 24 359 354 5 2 8 19 23 43 44 41 31 356 257 210 220 215 203 229 228 207 215 207 189 193 202 193 199 202 198 200 194 192 195 181 202 205 197 229 246 220 206 208 219 242 251 237 227 226 226 222 214 210 208 210 211 208 204 203 200
348 352 8 33 8 2 351 341 338 336 336 341 339 169 164 205 192 36 15 30 42 29 41 16 20 30 30 43 23 356 349 21 8 3 14 24 57 67 59 38 15 294 227 241 204 199 226 218 201 212 213 193 198 202 195 194 196 202 201 194 199 198 194 209 209 210 229 239 201 169 193 232 252 252 233 232 239 239 229 220 221 216 210 209 206 202 200 197
349 358 54 25 7 358 349 342 337 333 332 337 192 172 176 195 99 54 33 22 26 20 28 4 348 30 51 55 26 0 9 43 17 6 9 15 40 53 40 26 20 6 325 288 222 214 224 220 202 204 209 208 208 212 211 191 187 203 201 202 209 202 210 216 206 217 234 248 197 165 181 229 225 211 209 219 235 238 227 219 221 222 216 209 203 198 198 198
349 360 75 14 5 353 346 339 331 331 327 323 103 130 156 160 56 70 37 11 333 341 23 46 2 37 59 47 30 23 19 20 14 10 27 39 34 29 18 10 13 14 351 252 268 256 238 245 28 241 295 336 221 231 220 196 197 204 195 205 217 207 210 219 224 228 238 266 227 186 212 246 238 315 283 227 235 233 226 219 215 222 215 199 197 197 198 200
351 2 16 5 359 348 344 338 328 332 323 304 67 79 76 75 28 340 14 348 304 354 346 21 39 39 44 30 22 23 13 358 5 360 46 56 43 33 27 1 7 15 19 326 314 358 254 247 21 346 261 145 34 331 256 219 210 182 192 211 205 192 207 221 233 211 214 249 233 187 231 250 273 279 254 223 231 230 227 223 219 224 208 186 196 200 199 200
351 356 342 355 352 345 344 340 327 330 343 16 89 92 80 83 26 337 345 323 284 46 337 345 31 360 10 28 17 14 5 343 1 359 17 44 47 36 20 353 1 7 12 352 290 35 301 282 328 315 205 135 355 318 260 249 235 183 200 200 166 181 214 226 232 209 209 238 226 185 229 235 227 244 223 210 222 226 220 218 222 223 201 191 203 203 200 199
345 343 331 351 348 345 345 343 335 48 110 67 93 94 56 62 39 359 343 324 272 102 88 77 31 3 14 12 9 13 357 339 8 5 347 360 50 47 21 352 348 348 352 339 277 63 327 285 289 234 232 310 336 275 233 236 230 229 214 175 166 201 208 203 226 227 221 237 234 201 225 236 225 221 210 208 218 227 222 214 224 220 198 200 209 204 201 198
352 344 339 349 347 347 352 355 13 93 81 79 98 93 38 22 34 5 346 333 209 72 84 105 26 46 54 12 356 4 352 351 2 345 342 5 19 60 42 7 339 339 343 338 295 312 323 269 231 128 286 304 316 221 220 212 213 228 219 183 195 220 207 199 212 225 224 235 239 214 216 238 233 225 236 225 216 224 223 212 220 218 201 203 209 204 199 196
7 5 75 348 347 350 9 36 58 48 61 85 83 73 31 11 15 2 359 9 29 23 52 111 92 59 76 34 309 348 354 337 336 330 352 6 3 71 47 14 342 335 334 326 296 301 314 255 248 317 304 261 214 184 205 204 200 214 214 206 205 201 197 208 213 219 225 231 234 223 226 242 228 201 232 237 224 221 223 216 215 214 206 204 207 203 194 192
349 360 358 349 350 353 21 52 55 27 69 83 51 49 18 13 14 3 6 15 27 41 43 77 98 77 91 155 265 17 336 287 285 304 275 9 15 59 47 17 345 334 329 315 309 341 334 271 274 293 280 240 204 119 74 359 339 255 239 229 215 208 202 210 218 215 219 234 232 229 245 250 225 178 220 230 226 218 218 219 219 217 212 208 207 202 195 192
353 24 342 350 354 1 36 64 51 20 74 59 24 21 350 7 18 3 7 14 23 37 38 64 77 65 78 337 316 360 337 296 247 276 255 197 335 328 29 16 341 327 321 303 302 329 315 285 274 272 265 266 274 294 311 280 266 259 262 296 307 262 218 214 225 212 210 225 228 237 255 254 227 216 231 234 237 237 229 222 224 224 216 212 210 205 198 196
9 318 335 354 2 12 57 67 66 39 63 32 13 31 2 22 25 11 18 18 13 18 36 61 49 34 63 14 324 318 336 312 246 261 274 269 297 313 26 9 341 326 318 309 310 319 297 260 257 264 263 271 271 278 31 205 183 164 191 3 357 318 303 273 266 263 223 216 211 228 246 246 228 214 244 255 258 270 275 260 244 244 237 226 221 208 199 198
343 268 316 4 22 54 80 60 65 58 55 33 43 43 30 43 34 20 23 20 12 1 27 54 31 14 28 358 332 326 329 310 254 260 284 290 281 138 167 339 337 328 321 324 334 337 310 246 244 260 227 218 221 187 140 131 111 103 21 16 355 342 340 306 260 275 254 219 212 226 238 243 232 180 226 254 256 259 264 260 249 253 260 259 253 231 209 201
325 235 252 4 29 52 72 53 56 74 56 41 53 41 23 41 34 16 17 25 20 4 17 54 35 32 24 355 333 341 327 291 288 299 292 302 299 210 223 264 311 319 310 309 316 318 298 265 258 257 223 201 192 192 197 168 38 345 281 290 314 348 347 320 249 234 237 214 216 230 239 244 236 175 214 241 250 256 255 244 225 233 242 249 259 253 225 209
330 23 320 350 29 50 72 61 44 65 56 37 56 41 23 26 15 1 14 34 22 10 28 53 26 33 26 7 351 334 319 266 307 322 300 295 299 284 242 271 298 304 298 301 309 307 284 266 258 261 261 261 273 348 312 312 306 297 301 298 301 330 330 306 244 230 252 248 230 224 229 248 244 206 206 228 240 254 259 246 221 216 218 223 231 232 217 206
14 25 359 343 9 39 59 54 35 44 60 22 41 34 25 25 11 359 15 31 14 3 17 65 44 36 20 7 352 317 306 292 304 311 298 292 297 304 310 311 303 296 292 298 310 305 278 264 259 259 262 271 286 297 291 284 280 282 291 292 292 297 277 241 235 261 327 299 245 199 196 243 244 218 219 229 234 244 254 252 244 243 235 231 236 240 229 213
30 83 11 328 344 29 33 20 12 26 58 76 70 37 24 30 24 11 2 356 2 7 10 65 51 36 16 355 322 292 297 300 298 298 301 310 314 314 315 313 301 290 286 290 306 307 273 264 265 264 266 271 277 279 271 268 269 269 271 275 279 278 259 243 250 261 269 260 271 304 280 259 272 274 261 267 277 278 280 286 311 318 302 293 289 274 259 242
38 78 39 351 44 56 27 349 346 17 48 54 57 36 23 25 21 10 346 322 340 28 29 358 4 4 350 323 273 264 284 298 296 296 314 316 311 307 305 302 298 285 270 275 293 300 270 265 270 270 272 274 271 263 259 262 265 264 260 260 266 268 261 256 258 257 249 243 257 278 281 284 301 307 305 310 312 310 307 316 333 322 306 304 289 272 261 251
38 53 18 11 61 87 80 358 344 30 56 43 37 32 17 13 10 357 331 300 298 29 23 351 342 338 329 311 265 260 276 291 290 288 297 300 296 289 281 284 285 268 255 268 289 292 258 267 308 307 281 270 265 255 247 250 259 267 267 261 257 258 258 256 260 263 256 246 244 256 270 277 274 316 322 308 303 315 314 316 327 324 321 314 290 275 261 249
31 43 346 346 53 55 40 27 2 29 67 40 30 26 3 5 6 347 325 275 244 297 344 338 334 329 314 291 269 272 283 284 276 275 277 277 276 270 260 261 263 265 265 264 272 274 254 270 310 317 285 270 259 241 237 246 262 266 263 254 242 239 238 237 258 291 286 266 255 248 255 272 335 336 316 289 277 307 319 323 326 318 314 305 287 278 268 254
21 60 343 317 50 42 21 24 10 23 64 33 21 21 349 348 358 347 341 308 230 280 320 321 320 319 299 286 290 298 300 289 279 278 275 266 263 260 256 253 252 254 258 259 264 261 254 268 284 275 274 272 233 216 259 265 261 258 249 228 212 207 195 180 188 6 3 306 272 256 273 323 336 327 314 284 245 269 314 324 316 309 307 299 286 280 273 263
Height
817 814 812 809 807 804 802 800 798 796 794 792 790 789 787 786 784 783 781 780 779 778 776 774 773 772 772 771 770 769 769 768 767 768 764 752 749 755 756 757 759 761 764 767 769 772 775 778 779 780 782 784 785 785 786 785 784 790 798 803 802 799 793 785 783 781 780 780 779 778 776 779 785 782 777 777 781 784 788 788 787 787 786 787 790 794 799 803
817 814 812 809 806 804 801 799 797 795 793 791 789 788 786 785 783 782 780 779 778 776 775 773 772 771 770 770 769 768 768 767 767 764 756 748 749 752 753 756 759 760 762 764 765 766 771 775 778 780 782 785 786 785 787 785 785 792 796 800 796 790 785 778 778 777 776 778 778 778 775 776 780 780 777 783 789 787 791 793 790 792 792 791 793 796 800 803
816 814 811 809 806 803 801 798 796 794 792 790 788 787 785 784 782 780 779 777 776 775 774 772 771 770 769 769 768 768 767 767 765 757 749 747 747 747 750 754 757 759 760 762 762 763 765 769 775 778 783 787 786 786 788 786 786 789 792 797 789 781 780 776 776 775 773 773 777 778 776 777 777 775 777 783 789 788 790 792 792 796 795 795 795 796 800 803
816 814 811 808 805 803 800 798 796 793 791 789 787 785 784 782 781 779 777 776 774 773 772 771 770 769 768 768 768 767 767 766 759 750 747 748 746 744 747 751 755 758 760 762 765 766 766 770 774 777 783 788 787 787 789 786 785 787 789 791 782 777 781 776 773 772 770 770 773 776 777 779 775 773 777 781 790 791 786 783 785 790 792 793 795 795 798 801
815 813 810 807 805 802 799 797 794 792 790 788 786 784 783 781 780 778 776 775 773 772 771 770 769 768 767 767 767 767 767 763 754 748 748 746 745 744 744 750 754 757 760 763 766 768 770 772 774 778 782 786 788 788 788 782 781 786 784 781 777 777 781 775 771 771 770 771 773 777 779 778 774 775 776 778 786 785 777 775 778 782 786 789 792 795 797 800
815 812 809 806 803 801 798 796 793 791 789 787 785 783 781 780 778 777 775 774 772 771 770 769 768 767 767 767 767 767 766 760 751 749 747 745 744 743 744 750 753 756 760 763 765 768 771 773 776 781 783 784 787 785 784 779 779 787 782 776 775 775 778 774 770 771 770 773 776 776 775 772 776 779 775 774 777 773 768 770 775 779 782 785 789 793 796 798
814 811 808 805 802 800 797 794 792 790 788 785 784 782 780 778 777 776 774 773 772 770 769 768 767 767 767 767 767 767 766 759 751 750 746 744 745 743 746 750 753 756 759 762 764 766 769 773 776 778 782 784 784 782 781 779 780 786 783 776 774 773 774 771 769 770 770 773 772 770 771 773 779 779 774 774 772 767 767 769 773 779 782 786 789 792 794 796
813 810 807 804 801 799 796 793 790 788 786 784 783 781 779 777 776 775 773 772 770 769 768 767 767 767 767 767 767 765 764 758 752 751 747 745 745 745 748 751 754 756 758 760 760 762 765 770 772 773 780 781 780 782 781 781 783 785 781 776 773 772 771 768 768 769 769 769 767 769 774 774 773 773 774 775 770 767 768 770 774 779 783 787 789 792 794 797
812 809 806 804 800 798 795 792 789 787 785 783 782 780 778 776 775 773 772 771 769 769 767 767 767 767 767 768 767 764 757 752 751 750 748 748 748 748 749 750 754 755 757 760 759 762 764 768 769 768 775 777 777 780 779 783 784 779 776 775 774 773 769 767 768 768 768 767 767 772 775 772 768 771 775 772 769 768 768 773 776 780 785 787 790 791 793 795
811 808 806 803 799 796 794 791 788 786 784 782 781 779 777 775 774 772 771 770 768 768 766 767 767 767 768 767 768 764 754 750 751 749 749 750 750 750 751 750 752 753 755 758 760 761 760 763 764 764 770 774 775 777 778 780 777 771 774 774 773 773 768 767 768 766 766 766 766 772 775 770 766 773 778 769 765 768 770 776 777 780 784 786 789 790 792 794
811 808 805 802 799 796 793 790 787 785 783 781 780 777 776 774 772 771 770 769 767 767 767 767 767 767 768 767 769 764 752 750 751 750 751 751 750 751 751 751 751 752 754 757 759 759 759 761 761 766 771 772 775 777 776 773 770 769 773 774 772 771 767 765 767 765 765 766 763 766 771 770 770 775 774 766 764 767 772 777 778 780 783 784 787 790 792 794
810 807 804 801 798 795 792 789 786 784 782 780 779 776 774 772 771 770 769 768 767 767 767 767 767 767 768 768 766 758 751 752 752 751 751 749 750 750 750 751 752 752 753 754 758 758 761 762 762 768 770 769 775 779 774 767 769 771 772 778 775 770 768 763 762 762 764 766 758 763 776 778 776 774 766 762 764 767 772 777 778 780 782 784 786 788 791 793
810 806 803 800 797 794 791 788 785 783 781 779 777 774 772 771 770 769 768 767 767 768 767 767 767 767 768 765 757 753 751 751 751 750 751 749 748 749 750 751 752 754 754 754 756 759 762 763 763 766 766 768 774 773 768 764 770 774 773 779 779 777 772 758 757 759 762 763 754 765 788 784 771 766 761 760 763 768 774 777 778 780 781 783 785 787 790 791
809 806 803 799 796 793 790 787 785 783 780 778 776 773 771 769 769 768 768 768 767 767 766 767 767 767 768 761 752 751 751 750 750 750 750 749 748 749 750 751 754 755 756 756 758 760 763 764 765 767 766 768 770 767 768 770 772 775 777 779 781 786 776 756 755 759 763 761 750 766 790 780 763 760 758 758 761 767 773 775 776 779 780 782 784 786 788 789
809 805 802 798 795 792 789 786 784 782 780 777 774 772 770 769 768 768 768 768 767 767 766 766 767 767 767 759 750 750 750 749 749 749 749 749 749 749 750 752 755 756 757 758 759 762 764 765 768 771 769 767 768 773 776 776 774 774 782 784 782 785 776 758 755 757 762 760 752 766 784 774 759 756 754 755 759 763 770 773 775 777 778 781 782 784 786 787
808 804 801 798 794 791 788 786 783 781 779 776 774 771 769 769 768 768 768 767 767 766 766 767 766 767 766 757 750 750 750 749 748 748 748 748 748 749 750 752 755 757 757 758 759 762 764 766 768 770 771 771 774 778 781 782 780 776 781 784 782 783 777 766 758 752 755 759 758 764 774 770 759 753 752 754 757 761 767 771 773 775 776 778 780 782 784 786
807 803 800 796 793 790 788 785 783 781 778 776 773 771 770 768 768 768 767 767 767 766 767 767 767 768 761 751 750 751 749 748 747 746 745 746 747 747 750 753 755 757 757 758 760 762 765 767 770 771 773 776 775 779 788 793 787 780 780 781 780 779 777 772 764 753 751 758 763 763 766 765 758 754 754 754 755 760 765 768 770 772 774 776 778 780 782 784
806 802 798 795 791 789 787 785 783 781 779 776 773 772 770 768 768 768 768 767 766 766 766 766 766 767 760 751 753 753 749 747 746 745 745 743 744 746 749 751 754 756 758 761 762 763 768 769 771 775 777 778 777 780 789 789 781 780 781 782 781 778 775 774 768 757 755 759 763 765 766 762 757 756 756 754 754 758 761 763 766 768 772 774 775 777 779 780
805 801 797 794 790 788 786 784 783 781 779 776 773 772 770 769 768 767 767 766 765 766 767 767 766 769 766 757 755 753 749 746 744 743 743 742 744 746 748 751 753 756 760 764 765 764 767 771 776 780 778 775 774 774 777 775 772 774 776 778 779 776 773 769 764 756 755 762 763 763 765 761 758 757 757 755 754 757 759 760 764 767 770 772 774 775 776 777
804 800 796 793 789 787 785 784 783 781 779 777 773 771 771 773 771 769 768 766 768 770 769 769 769 770 766 759 755 753 749 746 744 744 744 743 744 746 749 752 755 758 761 763 766 763 765 775 777 773 769 767 768 770 770 770 772 773 775 777 777 775 771 764 763 757 752 763 764 758 761 759 756 755 753 754 755 758 760 762 765 766 768 770 771 772 772 774
803 799 795 792 789 786 785 784 783 781 780 779 775 773 778 782 780 779 775 770 768 770 770 768 769 769 764 760 757 755 753 749 745 744 745 744 743 747 751 754 760 764 761 760 764 764 767 774 769 762 762 763 766 769 771 773 774 775 776 777 776 775 771 762 762 758 753 763 764 757 761 759 753 752 750 752 757 759 758 759 762 763 765 766 767 769 770 772
802 798 794 791 788 786 785 784 783 782 781 780 777 778 783 785 784 784 782 777 770 768 769 767 768 767 761 759 757 757 758 754 749 745 744 744 744 748 752 754 760 761 759 760 765 771 774 770 761 757 760 763 767 769 772 775 775 776 776 779 779 773 770 765 761 758 756 763 764 759 762 758 749 748 748 750 754 753 750 751 753 756 760 762 763 765 768 771
802 798 794 790 787 786 785 784 783 782 781 780 780 781 784 784 784 783 783 783 775 768 767 766 766 765 760 758 757 757 758 758 755 748 744 746 747 748 751 754 757 758 760 761 763 771 774 764 755 756 760 764 769 770 772 776 776 776 775 779 779 772 773 772 764 761 758 759 761 760 761 756 748 748 748 747 746 746 746 746 748 750 753 755 756 760 763 767
802 798 794 790 787 785 784 784 783 782 781 781 781 782 784 783 782 782 781 783 780 770 766 766 765 764 762 759 758 758 758 758 757 751 746 747 749 749 749 751 755 758 760 758 758 763 763 754 750 756 761 764 769 770 771 776 777 774 771 774 775 771 773 772 766 763 759 757 757 761 769 760 750 753 750 744 744 745 746 748 750 750 751 753 755 757 760 762
801 798 795 791 788 785 784 784 783 782 782 781 782 782 782 781 780 780 779 781 781 772 766 766 765 764 762 759 758 758 758 757 755 752 748 748 749 750 749 749 753 758 759 757 759 760 756 750 749 756 761 763 767 768 768 771 775 774 768 766 769 770 772 771 769 768 770 770 759 762 782 772 750 750 749 744 747 748 747 748 750 750 751 754 756 756 757 758
801 799 795 792 789 786 784 784 784 783 781 781 782 781 780 779 778 778 778 780 780 771 768 768 766 766 761 759 758 756 760 757 751 750 749 748 747 747 750 748 749 755 755 756 760 757 752 748 750 755 758 760 765 766 763 765 773 774 762 759 766 769 772 773 772 775 780 778 761 759 781 777 756 749 744 742 748 747 746 747 745 746 749 750 751 753 753 755
801 798 795 793 790 787 785 785 785 783 782 782 781 779 778 776 776 776 777 783 783 773 772 771 767 767 764 762 758 757 766 761 750 749 747 748 746 745 750 749 748 751 748 755 765 755 747 750 753 755 757 761 763 763 758 760 771 770 755 756 765 768 773 774 773 777 775 771 765 758 768 779 768 751 741 741 747 747 747 746 743 743 745 745 746 747 748 750
800 797 795 792 791 789 787 786 785 784 784 783 779 777 776 773 775 775 777 787 784 773 775 774 768 767 764 763 761 761 767 763 758 753 746 747 748 746 750 747 747 748 743 754 764 750 742 750 753 754 759 760 757 754 751 756 766 762 752 755 761 765 770 770 773 776 771 777 781 765 763 781 774 750 742 744 747 750 748 744 742 742 741 740 742 742 743 745
798 796 793 791 789 788 787 786 785 784 783 781 778 776 774 773 773 773 779 788 781 775 778 774 769 770 768 765 765 765 765 764 765 758 747 749 747 745 750 747 744 746 743 747 753 746 740 742 745 749 755 754 750 748 748 754 760 754 751 754 757 762 764 768 773 773 774 786 788 769 764 781 774 748 744 750 748 747 744 739 738 737 736 736 737 738 740 742
796 794 792 789 788 787 785 784 784 783 781 778 777 774 773 774 774 779 787 788 781 779 778 774 775 777 773 770 770 769 768 767 766 758 751 751 748 745 748 747 745 746 744 745 746 744 739 736 737 741 744 744 745 747 746 750 752 750 753 757 760 763 763 767 769 771 785 790 779 765 760 775 777 750 738 744 740 735 735 735 735 733 733 733 734 735 737 739
794 792 790 788 787 786 784 782 781 781 779 776 775 774 774 775 777 785 790 785 782 782 779 779 781 779 778 778 777 774 771 769 766 762 759 756 754 754 753 755 756 752 748 749 747 743 741 740 739 736 734 736 743 747 746 745 746 751 755 759 768 773 772 776 775 780 796 788 767 757 755 769 776 750 731 730 726 724 727 729 731 731 729 729 729 730 731 733
793 790 787 787 787 785 784 783 780 778 777 775 774 773 775 780 783 788 788 783 785 786 783 784 784 782 783 782 782 780 776 775 771 768 769 767 766 769 770 773 775 766 757 753 750 747 744 739 737 736 731 732 742 749 750 748 747 752 756 761 777 786 788 793 791 788 791 778 758 751 756 765 759 738 727 726 722 721 720 720 722 723 723 723 724 725 725 728
791 788 786 786 786 785 784 782 779 777 775 774 773 772 776 785 789 790 788 786 789 787 784 786 785 785 785 783 785 784 779 780 776 773 773 772 773 777 777 778 778 774 766 759 756 754 749 740 735 738 734 729 736 745 752 752 750 753 756 762 777 788 797 801 793 787 784 772 755 750 759 763 749 730 723 721 718 715 713 714 715 714 716 717 717 719 722 724
790 788 787 786 785 784 782 780 778 776 774 772 772 774 781 790 792 791 790 788 789 787 785 788 787 786 786 787 790 786 782 783 779 777 776 774 777 779 779 779 777 776 773 767 760 755 757 752 739 737 739 734 732 734 739 742 747 748 745 752 763 770 783 790 785 784 782 771 758 757 763 759 746 730 715 709 709 706 707 709 709 709 709 710 712 715 719 721
789 787 786 785 784 782 780 778 776 775 773 771 772 778 787 795 795 793 792 790 788 787 788 789 788 789 789 790 790 787 786 786 781 781 781 780 783 784 784 784 781 780 778 773 765 759 761 755 739 736 739 738 735 730 726 734 746 743 737 749 757 752 758 769 770 768 770 771 763 759 754 738 728 721 708 706 707 703 704 704 705 708 705 708 713 713 715 717
787 785 784 784 783 781 778 776 774 773 773 771 776 786 793 796 796 793 792 790 789 789 789 789 789 792 793 792 791 788 787 786 785 784 784 785 788 788 788 788 784 784 784 780 776 772 767 755 742 741 738 735 738 735 729 734 741 740 741 748 744 736 744 762 768 761 765 775 763 751 748 733 727 722 706 706 711 706 706 704 703 704 703 707 711 709 711 711
785 784 784 783 782 779 776 774 772 772 771 772 781 792 796 795 794 793 792 791 790 789 791 793 794 796 796 794 794 792 788 787 787 786 786 788 789 790 790 788 785 786 786 786 782 777 775 763 746 744 742 735 735 736 731 728 729 737 745 739 733 739 743 753 769 770 773 778 760 746 747 739 739 732 709 705 712 708 706 705 702 701 702 706 706 704 705 704
787 785 784 784 782 779 775 773 772 771 771 776 786 793 795 794 793 792 793 792 791 789 791 796 796 796 797 797 796 794 792 791 790 790 789 789 790 792 792 790 786 784 785 786 782 776 779 772 751 744 747 739 731 734 735 728 722 728 731 724 732 752 755 754 767 771 773 776 762 751 746 735 731 726 711 708 710 705 703 703 702 700 701 702 700 699 700 700
789 786 785 785 782 778 775 773 772 771 773 783 792 795 795 795 792 792 792 792 791 790 793 796 796 796 797 798 798 796 795 795 794 793 792 792 792 792 792 792 789 785 783 784 783 776 777 776 760 746 746 743 735 735 738 732 724 723 725 723 726 739 745 747 752 755 762 770 764 757 752 736 720 712 708 708 703 699 699 699 699 698 696 696 695 694 696 698
792 788 786 785 781 778 776 773 773 776 782 791 796 797 797 796 793 792 791 791 790 791 793 796 796 797 798 799 799 797 797 797 796 795 794 794 794 793 793 793 792 788 784 782 782 778 775 778 769 751 744 743 738 734 734 734 731 730 733 732 729 730 733 737 739 737 746 759 761 761 756 733 708 700 702 701 697 695 694 693 693 691 689 689 688 688 690 692
794 790 789 786 781 778 775 776 783 788 792 797 799 800 800 797 795 794 792 790 790 790 792 794 795 797 799 799 798 797 798 797 796 796 795 793 794 795 794 794 793 792 788 783 781 779 778 779 775 762 752 745 737 733 735 737 739 740 738 733 730 730 733 745 749 735 732 743 747 752 754 728 699 693 695 691 689 688 686 687 688 685 683 683 682 682 684 685
796 794 792 788 783 779 777 785 795 797 797 801 803 803 802 798 799 798 795 794 794 792 792 794 796 798 799 799 798 798 798 797 797 796 795 794 794 795 793 793 793 792 791 787 782 780 779 780 780 772 760 748 737 733 736 737 739 743 742 736 733 730 729 742 749 736 730 734 732 738 747 725 694 689 692 688 684 682 682 684 684 680 678 677 677 677 678 679
804 801 796 790 785 781 781 791 799 800 802 805 805 804 803 802 802 801 799 798 798 797 796 797 798 799 800 800 799 798 797 797 797 796 795 795 794 793 793 793 793 791 790 788 783 780 779 781 780 771 757 745 736 734 736 735 736 742 744 742 743 742 740 742 741 735 732 731 730 741 747 725 694 686 689 688 686 685 683 683 684 681 676 674 674 675 675 677
810 807 800 794 787 782 788 800 804 804 807 807 805 805 804 804 805 804 804 803 803 802 801 802 802 801 801 801 800 798 798 799 798 795 795 796 794 793 792 792 793 792 791 789 786 784 783 781 778 771 760 752 746 743 740 737 739 746 750 749 749 749 749 744 737 737 736 726 724 737 741 720 695 687 687 686 686 687 683 681 682 682 679 677 675 675 676 676
810 805 802 799 792 789 799 809 809 808 811 810 809 810 808 806 807 808 807 806 805 804 803 804 804 803 803 803 800 798 798 799 799 797 796 796 794 792 792 792 793 792 791 789 786 786 787 782 778 774 764 756 755 756 752 749 750 752 752 752 751 751 752 747 740 742 740 725 717 725 727 711 694 691 692 687 684 684 682 679 680 680 679 678 677 677 677 678
810 806 805 803 800 800 808 812 811 811 814 814 812 813 813 812 810 809 808 807 807 805 804 805 804 804 805 805 804 803 800 799 800 800 799 797 794 792 792 793 793 792 790 789 787 788 788 782 778 777 769 759 761 766 764 761 759 756 753 751 750 751 753 753 750 744 738 730 722 716 714 709 700 696 695 689 683 683 680 678 678 677 676 676 675 675 674 675
813 814 815 812 808 807 810 812 814 815 816 816 815 815 817 816 813 811 808 809 809 807 806 807 806 808 810 811 812 810 804 801 802 801 800 797 794 793 792 792 793 791 789 788 788 788 790 785 777 775 772 764 763 766 764 762 761 758 756 752 749 750 751 754 752 744 739 740 731 713 708 711 705 696 693 688 683 681 679 676 675 674 674 673 672 672 671 672
815 818 820 818 816 816 815 815 817 817 815 815 816 817 817 817 817 816 813 811 810 809 809 809 810 812 814 816 817 814 808 805 805 803 801 799 798 796 794 792 791 790 789 789 787 788 792 787 776 773 771 764 762 763 762 761 760 757 756 752 749 748 750 752 749 742 742 746 737 719 713 715 707 696 692 687 682 680 676 674 674 673 673 673 673 674 673 671
817 819 819 818 819 821 821 820 820 818 815 814 816 818 819 818 819 819 817 815 813 811 812 813 813 814 815 816 818 815 811 809 808 806 804 803 802 802 800 796 791 788 789 790 788 788 790 785 777 775 773 765 762 762 761 759 756 754 752 749 746 744 743 744 742 737 737 740 735 724 721 719 710 701 696 690 686 684 679 676 677 677 677 677 676 676 674 670
821 822 821 820 819 820 821 822 821 819 816 816 817 819 819 818 819 819 818 817 817 814 814 815 815 815 814 815 817 814 810 809 810 808 807 806 805 803 802 799 793 790 791 791 789 788 789 784 777 777 776 766 759 758 757 756 754 752 749 744 741 741 739 737 735 732 733 734 730 727 728 722 710 703 702 696 691 689 687 684 683 682 681 681 679 676 673 669
823 823 823 822 820 819 820 822 822 820 818 818 819 820 820 819 820 820 817 815 817 815 814 815 816 815 814 814 814 811 807 806 808 805 804 804 802 799 798 796 793 792 792 792 791 789 789 785 779 781 780 766 755 755 755 751 750 749 744 740 738 736 735 734 732 731 733 734 730 725 724 720 712 707 704 698 694 693 692 690 689 686 684 682 681 677 672 668
823 823 823 823 821 820 820 822 822 820 819 820 821 822 822 820 819 820 818 815 814 814 813 814 816 815 814 813 811 807 805 804 804 800 798 798 795 793 793 791 790 792 791 791 791 789 789 787 782 784 782 766 755 756 754 751 751 744 732 726 727 729 730 730 731 731 731 733 732 726 719 717 715 711 705 700 697 697 695 693 691 689 686 683 680 675 670 665